This is the latest recevied weather packets stored in our database for station/object K1WJY. If no packets are shown the sender has not sent any weather packets the latest 10 day(s).
| Time | Temp. | Humidity | Pressure | Rain* | Wind** | Luminosity | Snow |
|---|---|---|---|---|---|---|---|
| 1777205458 | 8.89° C | 77% | 1022 hPa | 0 mm | - | 178 W/m² | - |
| 1777205154 | 7.78° C | 79% | 1022 hPa | 0 mm | - | 225 W/m² | - |
| 1777204850 | 7.22° C | 81% | 1022.1 hPa | 0 mm | - | 161 W/m² | - |
| 1777204545 | 7.22° C | 84% | 1022 hPa | 0 mm | - | 126 W/m² | - |
| 1777204241 | 6.67° C | 86% | 1022.1 hPa | 0 mm | - | 123 W/m² | - |
| 1777203937 | 5.56° C | 88% | 1022 hPa | 0 mm | - | 138 W/m² | - |
| 1777203632 | 5° C | 93% | 1021.9 hPa | 0 mm | - | 137 W/m² | - |
| 1777203327 | 5° C | 97% | 1022.1 hPa | 0 mm | - | 122 W/m² | - |
| 1777203025 | 4.44° C | 99% | 1022 hPa | 0 mm | - | 104 W/m² | - |
| 1777202721 | 3.89° C | 99% | 1022.1 hPa | 0 mm | - | 100 W/m² | - |
| 1777202420 | 3.33° C | 99% | 1022 hPa | 0 mm | - | 94 W/m² | - |
| 1777202115 | 3.33° C | 99% | 1021.8 hPa | 0 mm | - | 87 W/m² | - |
| 1777201811 | 2.78° C | 99% | 1021.6 hPa | 0 mm | - | 80 W/m² | - |
| 1777201508 | 2.78° C | 99% | 1021.9 hPa | 0 mm | - | 74 W/m² | - |
| 1777201203 | 2.22° C | 99% | 1021.6 hPa | 0 mm | - | 71 W/m² | - |
| 1777200899 | 1.67° C | 99% | 1021.7 hPa | 0 mm | - | 68 W/m² | - |
| 1777200596 | 1.11° C | 99% | 1021.6 hPa | 0 mm | - | 61 W/m² | - |
| 1777200295 | 0.56° C | 99% | 1021.6 hPa | 0 mm | - | 52 W/m² | - |
| 1777199992 | 0.56° C | 99% | 1021.7 hPa | 0 mm | - | 44 W/m² | - |
| 1777199687 | 0.56° C | 99% | 1021.6 hPa | 0 mm | - | 40 W/m² | - |
| 1777199383 | 0° C | 99% | 1021.5 hPa | 0 mm | - | 38 W/m² | - |
| 1777199082 | 0° C | 99% | 1021.5 hPa | 0 mm | - | 31 W/m² | - |
| 1777198779 | 0° C | 99% | 1021.3 hPa | 0 mm | - | 26 W/m² | - |
| 1777198475 | 0° C | 99% | 1021.4 hPa | 0 mm | - | 23 W/m² | - |
| 1777198173 | -0.56° C | 99% | 1021.2 hPa | 0 mm | - | 23 W/m² | - |
* Rain latest hour (hover to see other rain measurements)
** Current wind speed in m/s (hover to see current wind gust speed)